Hourly Weather São Paulo

Today, 14 August, Friday

Time Temperature Precipitation Wind Pressure Humidity
00:00 +24°C° 0 mm 2 mps 697 mmHg 54%
01:00 +23°C° 0 mm 2 mps 697 mmHg 54%
02:00 +23°C° 0 mm 2 mps 697 mmHg 55%
03:00 +23°C° 0 mm 2 mps 697 mmHg 55%
04:00 +21°C° 0 mm 2 mps 697 mmHg 56%
05:00 +22°C° 0 mm 1 mps 697 mmHg 56%
06:00 +22°C° 0 mm 1 mps 698 mmHg 57%
07:00 +23°C° 0 mm 1 mps 698 mmHg 53%
08:00 +24°C° 0 mm 1 mps 699 mmHg 49%
09:00 +26°C° 0 mm 1 mps 700 mmHg 45%
10:00 +27°C° 0 mm 2 mps 700 mmHg 41%
11:00 +29°C° 0 mm 3 mps 700 mmHg 37%
12:00 +31°C° 0 mm 3 mps 700 mmHg 33%
13:00 +31°C° 0 mm 3 mps 699 mmHg 33%
14:00 +31°C° 0 mm 3 mps 699 mmHg 33%
15:00 +31°C° 0 mm 3 mps 698 mmHg 33%
16:00 +30°C° 0 mm 2 mps 698 mmHg 38%
17:00 +28°C° 0 mm 1 mps 698 mmHg 42%
18:00 +25°C° 0 mm 0 mps 698 mmHg 47%
19:00 +26°C° 0.2 mm 1 mps 698 mmHg 51%
20:00 +25°C° 0.2 mm 1 mps 698 mmHg 54%
21:00 +25°C° 0.2 mm 1 mps 698 mmHg 58%
22:00 +24°C° 0.2 mm 1 mps 698 mmHg 60%
23:00 +24°C° 0.2 mm 1 mps 697 mmHg 62%

Tomorrow, 15 August, Saturday

Time Temperature Precipitation Wind Pressure Humidity
00:00 +23°C° 0.2 mm 1 mps 697 mmHg 64%
01:00 +23°C° 0 mm 1 mps 697 mmHg 65%
02:00 +21°C° 0 mm 2 mps 696 mmHg 66%
03:00 +21°C° 0 mm 2 mps 696 mmHg 67%
04:00 +21°C° 0 mm 2 mps 696 mmHg 66%
05:00 +21°C° 0 mm 3 mps 696 mmHg 64%
06:00 +21°C° 0 mm 3 mps 696 mmHg 62%
07:00 +23°C° 0 mm 4 mps 696 mmHg 56%
08:00 +25°C° 0 mm 5 mps 697 mmHg 49%
09:00 +27°C° 0 mm 5 mps 698 mmHg 42%
10:00 +29°C° 0 mm 5 mps 698 mmHg 37%
11:00 +30°C° 0 mm 5 mps 698 mmHg 32%
12:00 +33°C° 0 mm 5 mps 698 mmHg 27%
13:00 +33°C° 0 mm 5 mps 698 mmHg 28%
14:00 +34°C° 0 mm 5 mps 697 mmHg 28%
15:00 +34°C° 0 mm 4 mps 697 mmHg 28%
16:00 +31°C° 0 mm 3 mps 697 mmHg 35%
17:00 +29°C° 0 mm 3 mps 696 mmHg 42%
18:00 +27°C° 0 mm 2 mps 696 mmHg 49%
19:00 +26°C° 0 mm 2 mps 696 mmHg 54%
20:00 +24°C° 0 mm 2 mps 697 mmHg 58%
21:00 +23°C° 0 mm 2 mps 697 mmHg 62%
22:00 +23°C° 0 mm 2 mps 696 mmHg 63%
23:00 +23°C° 0 mm 2 mps 696 mmHg 63%

Day after tomorrow, 16 August, Sunday

Time Temperature Precipitation Wind Pressure Humidity
00:00 +23°C° 0 mm 2 mps 696 mmHg 64%
01:00 +23°C° 0.1 mm 2 mps 696 mmHg 65%
02:00 +21°C° 0.1 mm 2 mps 696 mmHg 67%
03:00 +22°C° 0.1 mm 1 mps 696 mmHg 68%
04:00 +21°C° 0.1 mm 2 mps 696 mmHg 73%
05:00 +20°C° 0.1 mm 2 mps 696 mmHg 78%
06:00 +19°C° 0.1 mm 3 mps 696 mmHg 83%
07:00 +19°C° 0.1 mm 3 mps 697 mmHg 83%
08:00 +20°C° 0.1 mm 3 mps 698 mmHg 82%
09:00 +20°C° 0.1 mm 3 mps 699 mmHg 82%
10:00 +21°C° 0 mm 3 mps 699 mmHg 77%
11:00 +22°C° 0 mm 3 mps 699 mmHg 72%
12:00 +24°C° 0 mm 2 mps 699 mmHg 66%
13:00 +24°C° 0 mm 3 mps 698 mmHg 67%
14:00 +24°C° 0 mm 3 mps 697 mmHg 68%
15:00 +22°C° 0 mm 3 mps 697 mmHg 69%
16:00 +22°C° 0.1 mm 3 mps 697 mmHg 72%
17:00 +21°C° 0.1 mm 3 mps 696 mmHg 75%
18:00 +21°C° 0.1 mm 3 mps 696 mmHg 78%
19:00 +20°C° 0.8 mm 3 mps 696 mmHg 81%
20:00 +20°C° 0.8 mm 3 mps 697 mmHg 84%
21:00 +19°C° 0.8 mm 3 mps 697 mmHg 86%
22:00 +19°C° 0.7 mm 3 mps 697 mmHg 87%
23:00 +19°C° 0.7 mm 3 mps 697 mmHg 87%

17 August, Monday

Time Temperature Precipitation Wind Pressure Humidity
00:00 +18°C° 0.7 mm 2 mps 697 mmHg 88%
01:00 +18°C° 0.8 mm 2 mps 697 mmHg 87%
02:00 +18°C° 0.8 mm 2 mps 696 mmHg 87%
03:00 +18°C° 0.8 mm 2 mps 696 mmHg 86%
04:00 +19°C° 0.7 mm 2 mps 697 mmHg 86%
05:00 +19°C° 0.7 mm 2 mps 697 mmHg 85%
06:00 +20°C° 0.7 mm 1 mps 697 mmHg 84%
07:00 +20°C° 0.4 mm 1 mps 697 mmHg 82%
08:00 +20°C° 0.4 mm 2 mps 698 mmHg 79%
09:00 +21°C° 0.4 mm 2 mps 698 mmHg 76%
10:00 +20°C° 2.2 mm 2 mps 698 mmHg 77%
11:00 +21°C° 2.2 mm 1 mps 698 mmHg 78%
12:00 +20°C° 2.2 mm 1 mps 698 mmHg 79%
13:00 +19°C° 1.2 mm 2 mps 698 mmHg 80%
14:00 +19°C° 1.2 mm 2 mps 697 mmHg 81%
15:00 +19°C° 1.2 mm 3 mps 697 mmHg 82%
16:00 +19°C° 0.9 mm 2 mps 697 mmHg 81%
17:00 +19°C° 0.9 mm 2 mps 697 mmHg 81%
18:00 +20°C° 0.9 mm 1 mps 697 mmHg 81%
19:00 +20°C° 1.1 mm 1 mps 697 mmHg 82%
20:00 +20°C° 1.1 mm 1 mps 697 mmHg 84%
21:00 +20°C° 1.1 mm 1 mps 697 mmHg 86%
22:00 +20°C° 0.3 mm 1 mps 697 mmHg 85%
23:00 +20°C° 0.3 mm 1 mps 697 mmHg 85%

18 August, Tuesday

Time Temperature Precipitation Wind Pressure Humidity
00:00 +20°C° 0.3 mm 1 mps 697 mmHg 85%
01:00 +19°C° 1.4 mm 1 mps 697 mmHg 87%
02:00 +19°C° 1.4 mm 1 mps 697 mmHg 89%
03:00 +17°C° 1.4 mm 0 mps 696 mmHg 90%
04:00 +19°C° 2 mm 1 mps 696 mmHg 90%
05:00 +18°C° 2 mm 2 mps 696 mmHg 91%
06:00 +18°C° 2 mm 3 mps 696 mmHg 91%
07:00 +19°C° 0.6 mm 3 mps 697 mmHg 88%
08:00 +19°C° 0.6 mm 3 mps 697 mmHg 86%
09:00 +20°C° 0.6 mm 3 mps 697 mmHg 83%
10:00 +20°C° 0.2 mm 3 mps 697 mmHg 81%
11:00 +21°C° 0.2 mm 3 mps 697 mmHg 79%
12:00 +22°C° 0.2 mm 3 mps 696 mmHg 78%
13:00 +21°C° 1.1 mm 3 mps 696 mmHg 79%
14:00 +21°C° 1.1 mm 2 mps 695 mmHg 81%
15:00 +22°C° 1.1 mm 1 mps 695 mmHg 83%
16:00 +22°C° 1.2 mm 1 mps 695 mmHg 84%
17:00 +22°C° 1.2 mm 1 mps 695 mmHg 85%
18:00 +20°C° 1.2 mm 2 mps 695 mmHg 86%
19:00 +20°C° 1.3 mm 2 mps 695 mmHg 87%
20:00 +20°C° 1.3 mm 2 mps 695 mmHg 88%
21:00 +20°C° 1.3 mm 2 mps 695 mmHg 89%
22:00 +20°C° 1.1 mm 2 mps 695 mmHg 88%
23:00 +20°C° 1.1 mm 2 mps 695 mmHg 88%

19 August, Wednesday

Time Temperature Precipitation Wind Pressure Humidity
00:00 +20°C° 1.1 mm 2 mps 695 mmHg 88%
01:00 +20°C° 0.6 mm 2 mps 695 mmHg 88%
02:00 +20°C° 0.6 mm 2 mps 695 mmHg 88%
03:00 +20°C° 0.6 mm 2 mps 694 mmHg 88%
04:00 +19°C° 0.2 mm 2 mps 694 mmHg 89%
05:00 +19°C° 0.2 mm 2 mps 695 mmHg 90%
06:00 +19°C° 0.2 mm 2 mps 695 mmHg 90%
07:00 +20°C° 0 mm 2 mps 695 mmHg 87%
08:00 +21°C° 0 mm 2 mps 695 mmHg 84%
09:00 +21°C° 0 mm 2 mps 695 mmHg 80%
10:00 +24°C° 0 mm 2 mps 696 mmHg 71%
11:00 +26°C° 0 mm 2 mps 696 mmHg 62%
12:00 +28°C° 0 mm 2 mps 696 mmHg 53%
13:00 +27°C° 0.4 mm 3 mps 696 mmHg 59%
14:00 +26°C° 0.4 mm 3 mps 695 mmHg 64%
15:00 +25°C° 0.4 mm 3 mps 694 mmHg 69%
16:00 +24°C° 0 mm 3 mps 694 mmHg 75%
17:00 +22°C° 0 mm 3 mps 695 mmHg 81%
18:00 +21°C° 0 mm 3 mps 695 mmHg 87%
19:00 +20°C° 0.1 mm 4 mps 695 mmHg 88%
20:00 +20°C° 0.1 mm 4 mps 696 mmHg 89%
21:00 +20°C° 0.1 mm 4 mps 697 mmHg 89%
22:00 +19°C° 0.3 mm 4 mps 697 mmHg 89%
23:00 +19°C° 0.3 mm 4 mps 697 mmHg 88%
Show more